OE3AJC-13 Weather Reports


time (UTC)temp
F
wind
direction
speed
knots
gust
knots
rain 1hr
in
rain 24hr
in
rain mn
in
humidity
%
barometer
mb
20260504004305 51 226 0.0 0.0 0.00 0.00 0.00 62 1013.2
20260504003304 53 228 0.0 0.0 0.00 0.00 0.00 60 1013.3
20260504002303 52 220 0.0 0.0 0.00 0.00 0.00 60 1013.2
20260504001300 52 228 0.0 0.0 0.00 0.00 0.00 62 1013.1
20260504000258 51 241 0.0 0.9 0.00 0.00 0.00 62 1013.1
20260503233253 51 233 0.0 0.0 0.00 0.00 0.00 62 1013.3
20260503232252 53 238 0.9 1.7 0.00 0.00 0.00 60 1013.3
20260503231250 52 232 0.0 0.0 0.00 0.00 0.00 60 1013.3
20260503230249 52 225 0.0 0.0 0.00 0.00 0.00 61 1013.4
20260503225247 52 233 0.9 0.9 0.00 0.00 0.00 60 1013.3
20260503224246 53 223 0.0 0.0 0.00 0.00 0.00 59 1013.4
20260503223244 53 230 0.0 0.0 0.00 0.00 0.00 59 1013.4
20260503222243 54 229 0.0 0.0 0.00 0.00 0.00 58 1013.3
20260503221242 55 231 0.0 0.9 0.00 0.00 0.00 57 1013.5
20260503220240 54 227 0.0 0.0 0.00 0.00 0.00 57 1013.4
20260503215238 55 231 0.0 0.9 0.00 0.00 0.00 56 1013.4
20260503213234 56 230 0.0 0.0 0.00 0.00 0.00 55 1013.5
20260503212233 57 235 0.0 0.0 0.00 0.00 0.00 53 1013.7
20260503211231 57 229 0.0 0.0 0.00 0.00 0.00 52 1013.8
20260503210230 57 230 0.0 0.9 0.00 0.00 0.00 53 1013.7
20260503205229 57 233 1.7 1.7 0.00 0.00 0.00 53 1013.7
20260503204228 58 239 1.7 2.6 0.00 0.00 0.00 52 1013.8
20260503203226 58 232 0.0 0.9 0.00 0.00 0.00 52 1013.7
20260503201222 62 221 0.0 0.0 0.00 0.00 0.00 45 1013.9
20260503200220 63 203 0.9 1.7 0.00 0.00 0.00 44 1013.8
20260503191216 64 206 0.0 0.9 0.00 0.00 0.00 43 1013.8
20260503190213 64 170 0.9 1.7 0.00 0.00 0.00 43 1013.8
20260503185211 65 213 0.9 0.9 0.00 0.00 0.00 42 1013.7
20260503184209 65 222 0.0 0.0 0.00 0.00 0.00 42 1013.4
20260503183206 66 221 0.0 0.0 0.00 0.00 0.00 42 1013.7
20260503182204 66 212 0.0 0.9 0.00 0.00 0.00 41 1013.7
20260503181203 67 225 0.0 0.0 0.00 0.00 0.00 40 1013.5
20260503175159 69 239 0.0 0.9 0.00 0.00 0.00 39 1013.5
20260503174156 69 220 0.9 0.9 0.00 0.00 0.00 38 1013.7
20260503173154 70 173 3.5 5.2 0.00 0.00 0.00 37 1013.7
20260503171150 72 100 4.3 4.3 0.00 0.00 0.00 35 1013.7
20260503170147 72 209 1.7 1.7 0.00 0.00 0.00 35 1013.5
20260503081007 65 146 1.7 2.6 0.00 0.00 0.00 45 1018.1
20260503072931 60 202 0.9 1.7 0.00 0.00 0.00 50 1018.0
20260503071921 60 202 0.9 1.7 0.00 0.00 0.00 50 1018.0
20260503054751 50 240 0.0 0.0 0.00 0.00 0.00 62 1017.6
20260503053747 48 234 0.0 0.0 0.00 0.00 0.00 64 1017.6
20260503052740 42 237 0.0 1.7 0.00 0.00 0.00 74 1017.5
20260503051726 42 237 0.0 1.7 0.00 0.00 0.00 74 1017.5
20260503050725 40 233 0.0 0.0 0.00 0.00 0.00 80 1017.6
20260503045725 36 230 1.7 1.7 0.00 0.00 0.00 81 1017.5
20260503044724 35 233 0.9 0.9 0.00 0.00 0.00 83 1017.7
20260503043724 34 218 0.0 0.0 0.00 0.00 0.00 83 1017.8
20260503042723 33 231 0.0 0.0 0.00 0.00 0.00 83 1017.4
20260503041723 33 231 0.0 0.0 0.00 0.00 0.00 83 1017.3
20260503040722 33 232 0.0 0.0 0.00 0.00 0.00 83 1017.4
20260503035722 32 235 0.0 0.9 0.00 0.00 0.00 82 1017.5
20260503034721 33 230 0.0 0.0 0.00 0.00 0.00 83 1017.6
20260503033721 33 231 0.0 0.0 0.00 0.00 0.00 83 1017.4
20260503032720 33 232 0.0 0.0 0.00 0.00 0.00 82 1017.6
20260503031720 34 231 0.0 0.0 0.00 0.00 0.00 82 1017.6
20260503030719 33 232 0.0 0.0 0.00 0.00 0.00 82 1017.5
20260503025719 34 231 0.0 0.0 0.00 0.00 0.00 82 1017.5
20260503024718 34 232 0.0 0.0 0.00 0.00 0.00 82 1017.6
20260503023718 33 232 0.0 0.0 0.00 0.00 0.00 81 1017.7
20260503022717 34 232 0.0 0.0 0.00 0.00 0.00 81 1017.6
20260503021717 35 232 0.0 0.0 0.00 0.00 0.00 81 1017.6
20260503020716 35 232 0.0 0.0 0.00 0.00 0.00 80 1018.0
20260503015716 35 232 0.0 0.0 0.00 0.00 0.00 80 1017.8
20260503014715 36 230 0.0 0.0 0.00 0.00 0.00 80 1017.7
20260503013715 35 230 0.0 0.0 0.00 0.00 0.00 80 1018.0
20260503012714 36 231 0.0 0.0 0.00 0.00 0.00 80 1018.0
20260503011714 36 231 0.0 0.0 0.00 0.00 0.00 80 1018.0
20260503010713 35 230 0.0 0.0 0.00 0.00 0.00 79 1018.0
20260503005713 37 231 0.0 0.0 0.00 0.00 0.00 78 1017.8